SCP
0 0 0 0 0 0 -0 0 -0 0 0 0 0 0 0 0 0 0 0 1 0 1 1 1 2 1 1 1 1 1 1 1 1 1 1 1 1 1 1 1 1 1 1
0 0 0 0 0 0 -0 0 0 0 0 0 0 0 0 0 0 0 1 2 2 1 1 2 1 0 1 1 0 0 0 0 0 0 1 1 1 1 1 1 1 1 1
1 0 0 0 0 0 0 0 0 0 0 0 0 0 0 0 1 3 4 2 1 1 1 1 0 1 1 0 0 0 0 0 0 1 1 1 1 1 1 1 1 1 1
1 1 0 0 1 0 0 0 0 0 0 0 0 1 1 2 3 2 3 3 3 0 0 0 0 1 0 0 0 0 0 0 0 0 0 0 1 1 1 1 1 1 1
0 0 1 0 1 0 0 0 0 0 0 1 0 2 3 3 2 4 3 6 3 1 -0 -0 -0 0 0 0 0 0 0 0 0 0 0 0 0 1 1 1 1 1 1
0 1 0 1 1 1 0 0 0 1 1 1 0 3 3 3 1 4 4 3 2 2 1 1 0 0 0 0 0 0 0 0 0 0 0 0 0 0 0 1 0 0 0
0 1 0 2 1 0 0 1 1 0 1 3 3 5 4 2 0 2 4 3 2 0 0 0 0 0 0 0 -0 0 0 0 0 0 0 0 0 0 0 0 0 0 0
0 1 0 1 1 1 1 1 1 1 4 4 4 3 3 3 1 2 0 1 1 1 0 0 0 0 0 0 0 0 0 0 0 0 0 0 0 0 0 0 0 0 0
1 1 1 1 1 1 0 1 2 1 4 2 2 3 1 0 0 2 0 0 0 0 0 0 0 0 0 0 0 0 0 0 0 0 0 0 0 0 0 0 0 0 0
1 1 1 3 1 1 0 1 1 2 3 2 1 0 1 0 0 0 0 1 0 0 0 0 0 0 0 0 0 0 0 0 0 0 0 0 0 0 0 0 0 0 0
1 1 2 2 2 1 1 1 3 4 3 1 0 0 0 0 0 0 0 0 0 0 0 0 0 0 0 0 0 0 0 0 0 0 0 0 0 0 0 0 0 0 0
2 2 2 2 3 1 2 3 3 2 1 1 1 0 0 0 1 0 0 0 0 0 0 0 0 0 0 0 0 0 0 0 0 0 0 0 0 0 0 0 0 0 0
3 2 2 2 2 2 2 1 1 1 1 1 1 0 0 0 1 0 0 0 0 0 0 0 0 0 0 0 0 0 0 0 0 0 0 0 0 0 0 0 0 0 0
5 4 3 3 2 2 1 1 1 1 1 1 0 1 1 1 0 0 0 0 0 0 0 0 0 0 0 0 0 0 0 0 0 0 0 0 0 0 0 0 0 0 0
5 5 4 4 4 3 2 1 1 1 0 1 1 1 0 0 0 0 0 0 0 0 0 0 0 0 0 0 0 0 0 0 0 0 0 0 0 0 0 0 0 0 0
5 5 5 5 4 2 2 1 1 1 0 1 0 0 0 0 0 0 0 0 0 0 0 0 0 0 0 0 0 0 0 0 0 0 0 0 0 0 0 0 0 0 0
7 6 8 6 4 2 1 1 1 1 0 1 0 0 0 0 0 0 0 0 0 0 0 0 0 0 0 0 0 0 0 0 0 0 0 0 0 0 0 0 0 0 0
9 7 8 5 3 1 1 1 1 1 1 0 0 0 0 0 0 0 0 0 0 0 0 0 0 0 0 0 0 0 0 0 0 0 0 0 0 0 0 0 0 0 0
3 4 6 3 1 1 1 1 1 1 0 0 0 0 0 0 0 0 0 0 0 0 0 0 0 0 0 0 0 0 0 0 0 0 0 0 0 0 0 0 0 0 0
-0 0 1 3 2 1 1 1 0 0 0 0 0 0 0 0 0 0 0 0 0 0 0 0 0 0 0 0 0 0 0 0 0 0 0 0 0 -0 0 0 0 0 0
0 -0 0 2 2 1 0 0 0 0 0 0 0 0 0 0 0 0 0 0 0 0 0 0 0 0 0 0 0 0 0 0 0 0 0 0 0 0 0 0 0 0 0
0 0 -0 1 0 0 0 0 0 0 0 0 0 0 0 0 0 0 0 0 0 0 0 0 0 0 0 0 0 0 0 0 0 0 0 0 0 0 0 0 0 0 0
0 0 0 0 0 0 0 0 0 0 0 0 0 0 0 0 0 0 0 0 0 0 0 0 0 0 0 0 0 0 0 0 0 0 0 0 -0 0 0 0 0 0 0
1 0 0 0 0 0 0 0 0 0 0 0 0 0 0 0 0 0 0 0 0 0 0 0 0 0 0 0 0 0 0 0 0 0 0 0 0 0 0 0 0 0 -0
0 0 0 0 0 0 0 0 0 0 0 0 0 0 0 0 0 0 0 0 0 0 0 0 0 0 0 0 0 0 0 0 0 0 0 0 0 0 0 0 0 0 0
0 0 0 0 0 0 0 0 0 0 0 0 0 0 0 0 0 0 0 0 0 0 0 0 0 0 0 0 0 -0 0 0 0 0 0 0 0 0 0 0 0 0 0
Wind_Speed_500mb
39 32 22 15 15 14 14 9 4 9 1 11 19 9 14 20 20 22 19 30 38 29 38 41 41 44 46 42 40 40 41 43 44 43 41 39 38 37 36 35 33 33 35
42 39 36 24 14 22 7 17 8 16 17 15 13 17 15 15 12 15 18 23 32 37 39 33 37 40 39 39 42 45 45 45 44 43 40 39 37 36 34 35 35 36 36
42 40 37 38 30 30 24 18 17 23 20 10 9 10 14 15 24 28 20 18 31 27 23 36 34 35 39 38 46 53 50 48 47 45 42 38 34 34 34 35 34 36 40
44 42 39 36 32 31 34 23 29 15 9 5 10 13 16 27 26 33 43 22 27 20 20 28 30 34 35 44 49 56 51 48 46 43 41 38 35 33 32 34 36 38 38
52 49 44 33 34 34 26 27 20 16 17 17 11 28 30 36 37 40 14 13 4 17 17 19 29 27 34 47 47 54 49 52 42 42 39 36 34 32 32 33 33 36 39
58 50 50 41 43 42 36 30 29 23 23 24 20 15 22 22 25 10 13 6 16 22 12 25 27 24 48 51 50 48 53 43 38 37 35 33 32 31 33 33 33 32 35
69 57 60 51 48 49 39 33 38 38 27 27 29 26 24 26 19 18 15 16 20 16 22 31 29 34 41 52 48 46 50 37 37 37 34 32 30 29 30 28 32 34 35
61 67 58 56 56 43 43 38 40 28 33 41 40 35 15 28 31 20 16 32 19 11 20 27 39 45 52 43 47 47 46 42 38 37 36 34 32 31 32 33 35 34 33
64 70 65 55 51 43 49 52 43 46 46 45 42 30 15 25 24 21 18 14 17 31 24 29 37 42 39 41 36 49 49 49 44 44 39 36 35 34 34 33 34 34 35
67 73 65 64 54 46 49 39 45 46 54 52 40 38 36 38 12 11 14 19 28 29 26 33 31 29 36 34 47 52 54 56 53 39 34 32 33 35 36 37 36 36 35
78 76 73 74 61 53 54 48 49 53 52 49 38 30 41 26 16 7 11 22 25 23 30 29 31 27 34 34 36 48 56 59 46 47 37 32 30 32 34 35 37 37 35
83 80 83 73 68 56 65 60 52 49 47 37 32 43 24 6 4 5 11 12 21 19 25 23 31 23 27 37 45 51 55 43 47 49 44 36 34 35 36 38 38 38 36
86 88 79 74 77 70 61 62 54 47 43 41 45 32 22 20 17 7 8 15 19 24 21 24 10 18 24 35 47 59 49 36 44 43 49 46 44 41 37 34 34 35 36
76 75 77 72 73 73 67 60 50 47 47 48 41 31 23 16 15 9 10 17 20 16 16 19 9 18 30 40 54 49 34 32 33 41 46 45 39 37 37 37 36 36 36
74 80 87 79 72 69 65 56 50 51 51 50 37 34 22 18 13 11 12 14 14 12 18 7 19 28 38 49 43 35 26 28 31 39 43 47 48 43 44 40 38 39 39
81 91 92 80 78 69 59 57 56 57 53 44 40 31 27 17 8 11 16 15 14 9 12 16 21 33 41 40 31 33 23 31 28 34 43 52 51 51 42 39 42 40 41
88 92 94 86 80 68 61 60 58 57 46 45 40 31 25 14 10 13 18 19 9 16 19 17 17 22 25 35 32 36 26 31 32 34 45 45 50 41 38 47 46 45 49
93 99 87 90 80 68 64 62 56 49 50 47 36 26 20 17 13 16 14 17 12 14 10 12 11 18 18 25 30 35 29 26 28 34 40 32 34 35 37 51 52 56 55
57 89 93 92 74 71 66 64 58 49 49 42 31 26 20 15 11 17 12 10 12 11 2 14 18 12 17 19 35 27 27 23 27 25 22 29 38 34 32 49 52 59 53
59 64 75 68 79 73 68 69 63 54 50 40 34 25 21 15 11 7 5 2 8 6 7 9 6 8 14 27 23 28 27 28 30 25 30 29 25 37 40 44 47 58 56
70 80 43 65 74 76 74 73 65 58 52 43 34 25 15 10 9 9 12 10 10 5 12 11 4 8 19 25 27 25 23 20 22 32 32 27 30 33 36 33 44 54 53
84 74 87 82 78 71 70 66 66 57 49 40 29 22 14 8 6 5 8 9 7 3 3 2 4 6 15 19 26 22 31 29 28 28 47 22 37 29 29 29 42 51 51
101 80 86 91 84 69 62 67 59 51 44 33 24 17 14 9 8 9 11 9 8 7 8 9 10 15 19 27 27 20 22 29 36 20 27 21 32 41 11 24 32 44 45
87 87 86 86 75 65 70 65 53 48 37 29 27 26 16 7 4 6 14 11 13 12 17 19 22 23 24 26 28 18 15 26 33 8 23 40 34 39 16 19 29 36 39
94 83 74 69 72 75 68 60 50 45 42 39 30 20 8 7 13 17 12 13 7 4 12 19 24 26 24 25 26 26 19 13 11 25 21 38 37 36 8 17 33 27 40
88 82 70 66 75 79 67 51 43 41 40 35 26 15 11 8 13 18 15 22 12 6 18 19 26 30 30 32 34 37 31 30 21 14 29 38 35 43 23 12 30 46 52
Wind_Direction_500mb
204 194 200 229 207 198 216 212 229 263 6 245 261 286 301 295 305 330 320 320 330 336 336 321 322 332 334 333 328 326 322 317 316 313 313 311 304 302 300 299 296 297 300
204 191 189 198 195 205 186 204 202 208 245 231 270 287 318 291 302 296 302 303 293 305 301 315 319 332 330 335 332 329 322 319 318 316 314 308 305 302 298 297 299 302 304
202 192 185 188 196 185 199 196 205 216 228 233 255 291 290 302 256 239 237 305 305 321 336 316 329 335 336 340 337 331 328 322 318 317 314 314 311 305 304 304 304 305 305
198 192 187 194 181 199 203 198 206 208 241 262 280 272 250 255 258 257 278 297 306 325 324 314 322 338 334 335 337 330 334 335 326 320 316 317 315 313 309 308 309 309 310
195 192 184 199 183 199 204 196 198 206 217 231 244 252 248 249 258 270 279 258 258 351 311 338 337 343 329 331 328 326 334 333 333 330 330 321 315 316 316 312 314 316 315
191 198 182 194 202 195 195 200 195 205 212 222 218 279 270 276 263 246 214 267 329 335 325 324 316 319 326 321 318 321 326 331 339 340 336 331 323 319 318 317 318 317 316
195 206 193 191 207 212 195 202 207 203 192 220 221 244 265 269 259 260 251 342 344 25 313 316 323 320 327 319 308 320 330 333 335 336 336 334 332 329 326 325 322 320 322
207 206 198 201 208 204 190 204 215 196 208 221 225 235 245 261 262 253 299 310 319 320 301 313 319 318 316 331 318 322 328 331 331 331 332 335 332 328 328 324 320 322 325
210 208 192 198 213 200 205 208 215 187 214 223 222 220 215 237 251 275 340 357 345 332 321 314 318 318 324 327 319 317 321 325 326 323 322 320 322 326 329 330 329 328 326
211 208 198 191 206 195 211 213 217 202 215 228 223 231 243 255 295 325 331 332 330 325 331 334 321 322 313 316 318 319 316 324 327 325 322 320 316 317 319 320 323 324 327
214 207 207 193 201 203 207 213 212 206 217 231 234 240 248 267 270 312 313 328 327 348 327 323 322 310 307 309 315 317 317 328 335 348 339 331 329 325 320 320 319 319 321
213 210 211 197 203 205 203 213 220 222 222 226 225 241 251 230 282 258 298 316 327 312 311 327 304 279 294 306 308 321 321 329 349 355 353 354 351 342 334 327 318 315 315
213 211 207 199 201 208 203 217 221 223 222 219 234 237 235 206 219 248 271 298 299 327 344 343 298 279 288 297 315 323 330 346 359 5 11 17 13 4 353 343 335 326 318
206 197 200 201 203 206 210 215 222 223 216 228 228 218 195 205 229 244 275 292 317 331 343 9 331 304 305 314 320 320 343 1 0 6 7 8 359 358 356 351 347 346 340
204 198 200 200 202 206 209 211 217 213 214 221 215 196 232 228 225 260 274 293 309 335 327 323 342 308 307 312 319 336 357 1 7 356 356 353 349 348 350 348 351 351 347
201 198 200 199 202 201 202 199 204 211 218 206 200 207 213 225 241 268 285 294 305 276 276 292 303 304 311 329 339 351 4 356 358 351 351 348 348 349 349 357 1 359 355
199 202 201 196 200 196 193 198 206 214 205 195 206 207 202 207 225 265 299 293 293 260 270 280 293 314 340 343 340 353 1 347 359 1 347 347 354 14 14 9 7 360 351
210 201 196 197 196 191 191 196 207 206 198 199 202 198 198 209 229 262 279 288 310 311 328 358 354 21 333 328 327 343 345 2 6 353 352 347 14 9 1 2 0 355 354
212 210 190 190 187 190 190 192 202 193 200 201 196 197 204 209 225 280 274 288 261 289 28 7 30 355 340 319 325 347 347 10 16 22 330 353 9 7 352 358 1 359 3
276 289 188 181 187 187 187 190 198 195 197 189 186 192 194 209 257 253 275 310 300 89 22 348 17 338 298 310 327 338 23 44 30 2 17 31 8 349 349 353 356 360 359
232 230 225 196 177 183 182 191 194 191 191 185 185 196 198 212 256 240 248 275 290 238 207 175 179 277 303 336 345 12 23 30 61 353 20 27 0 4 356 351 353 351 352
223 220 212 178 178 183 188 188 188 186 188 183 185 180 185 209 230 184 229 271 281 306 317 319 265 346 348 358 9 30 48 44 28 4 4 18 355 356 357 348 343 345 357
199 215 195 182 178 181 183 184 186 180 178 172 168 169 175 148 142 114 81 64 45 34 33 18 31 40 37 27 25 48 52 25 4 335 345 13 344 346 30 351 335 343 353
184 166 170 174 177 178 181 176 174 169 160 155 148 160 200 141 160 128 95 45 26 14 34 59 57 58 46 30 23 17 41 45 30 358 340 352 338 355 58 328 329 338 348
170 172 177 175 171 168 171 171 172 164 167 168 167 182 174 155 149 150 145 131 120 7 65 73 63 50 35 25 24 24 48 40 31 353 341 355 333 354 83 308 336 9 354
170 179 178 169 170 162 157 164 174 174 174 166 163 175 140 122 137 155 159 135 172 104 88 72 45 27 25 15 8 3 9 9 11 14 337 348 351 357 350 326 16 7 1
Wind_Speed_850mb
39 32 22 15 15 14 14 9 4 9 1 11 19 9 14 20 20 22 19 30 38 29 38 41 41 44 46 42 40 40 41 43 44 43 41 39 38 37 36 35 33 33 35
42 39 36 24 14 22 7 17 8 16 17 15 13 17 15 15 12 15 18 23 32 37 39 33 37 40 39 39 42 45 45 45 44 43 40 39 37 36 34 35 35 36 36
42 40 37 38 30 30 24 18 17 23 20 10 9 10 14 15 24 28 20 18 31 27 23 36 34 35 39 38 46 53 50 48 47 45 42 38 34 34 34 35 34 36 40
44 42 39 36 32 31 34 23 29 15 9 5 10 13 16 27 26 33 43 22 27 20 20 28 30 34 35 44 49 56 51 48 46 43 41 38 35 33 32 34 36 38 38
52 49 44 33 34 34 26 27 20 16 17 17 11 28 30 36 37 40 14 13 4 17 17 19 29 27 34 47 47 54 49 52 42 42 39 36 34 32 32 33 33 36 39
58 50 50 41 43 42 36 30 29 23 23 24 20 15 22 22 25 10 13 6 16 22 12 25 27 24 48 51 50 48 53 43 38 37 35 33 32 31 33 33 33 32 35
69 57 60 51 48 49 39 33 38 38 27 27 29 26 24 26 19 18 15 16 20 16 22 31 29 34 41 52 48 46 50 37 37 37 34 32 30 29 30 28 32 34 35
61 67 58 56 56 43 43 38 40 28 33 41 40 35 15 28 31 20 16 32 19 11 20 27 39 45 52 43 47 47 46 42 38 37 36 34 32 31 32 33 35 34 33
64 70 65 55 51 43 49 52 43 46 46 45 42 30 15 25 24 21 18 14 17 31 24 29 37 42 39 41 36 49 49 49 44 44 39 36 35 34 34 33 34 34 35
67 73 65 64 54 46 49 39 45 46 54 52 40 38 36 38 12 11 14 19 28 29 26 33 31 29 36 34 47 52 54 56 53 39 34 32 33 35 36 37 36 36 35
78 76 73 74 61 53 54 48 49 53 52 49 38 30 41 26 16 7 11 22 25 23 30 29 31 27 34 34 36 48 56 59 46 47 37 32 30 32 34 35 37 37 35
83 80 83 73 68 56 65 60 52 49 47 37 32 43 24 6 4 5 11 12 21 19 25 23 31 23 27 37 45 51 55 43 47 49 44 36 34 35 36 38 38 38 36
86 88 79 74 77 70 61 62 54 47 43 41 45 32 22 20 17 7 8 15 19 24 21 24 10 18 24 35 47 59 49 36 44 43 49 46 44 41 37 34 34 35 36
76 75 77 72 73 73 67 60 50 47 47 48 41 31 23 16 15 9 10 17 20 16 16 19 9 18 30 40 54 49 34 32 33 41 46 45 39 37 37 37 36 36 36
74 80 87 79 72 69 65 56 50 51 51 50 37 34 22 18 13 11 12 14 14 12 18 7 19 28 38 49 43 35 26 28 31 39 43 47 48 43 44 40 38 39 39
81 91 92 80 78 69 59 57 56 57 53 44 40 31 27 17 8 11 16 15 14 9 12 16 21 33 41 40 31 33 23 31 28 34 43 52 51 51 42 39 42 40 41
88 92 94 86 80 68 61 60 58 57 46 45 40 31 25 14 10 13 18 19 9 16 19 17 17 22 25 35 32 36 26 31 32 34 45 45 50 41 38 47 46 45 49
93 99 87 90 80 68 64 62 56 49 50 47 36 26 20 17 13 16 14 17 12 14 10 12 11 18 18 25 30 35 29 26 28 34 40 32 34 35 37 51 52 56 55
57 89 93 92 74 71 66 64 58 49 49 42 31 26 20 15 11 17 12 10 12 11 2 14 18 12 17 19 35 27 27 23 27 25 22 29 38 34 32 49 52 59 53
59 64 75 68 79 73 68 69 63 54 50 40 34 25 21 15 11 7 5 2 8 6 7 9 6 8 14 27 23 28 27 28 30 25 30 29 25 37 40 44 47 58 56
70 80 43 65 74 76 74 73 65 58 52 43 34 25 15 10 9 9 12 10 10 5 12 11 4 8 19 25 27 25 23 20 22 32 32 27 30 33 36 33 44 54 53
84 74 87 82 78 71 70 66 66 57 49 40 29 22 14 8 6 5 8 9 7 3 3 2 4 6 15 19 26 22 31 29 28 28 47 22 37 29 29 29 42 51 51
101 80 86 91 84 69 62 67 59 51 44 33 24 17 14 9 8 9 11 9 8 7 8 9 10 15 19 27 27 20 22 29 36 20 27 21 32 41 11 24 32 44 45
87 87 86 86 75 65 70 65 53 48 37 29 27 26 16 7 4 6 14 11 13 12 17 19 22 23 24 26 28 18 15 26 33 8 23 40 34 39 16 19 29 36 39
94 83 74 69 72 75 68 60 50 45 42 39 30 20 8 7 13 17 12 13 7 4 12 19 24 26 24 25 26 26 19 13 11 25 21 38 37 36 8 17 33 27 40
88 82 70 66 75 79 67 51 43 41 40 35 26 15 11 8 13 18 15 22 12 6 18 19 26 30 30 32 34 37 31 30 21 14 29 38 35 43 23 12 30 46 52
Wind_Direction_850mb
204 194 200 229 207 198 216 212 229 263 6 245 261 286 301 295 305 330 320 320 330 336 336 321 322 332 334 333 328 326 322 317 316 313 313 311 304 302 300 299 296 297 300
204 191 189 198 195 205 186 204 202 208 245 231 270 287 318 291 302 296 302 303 293 305 301 315 319 332 330 335 332 329 322 319 318 316 314 308 305 302 298 297 299 302 304
202 192 185 188 196 185 199 196 205 216 228 233 255 291 290 302 256 239 237 305 305 321 336 316 329 335 336 340 337 331 328 322 318 317 314 314 311 305 304 304 304 305 305
198 192 187 194 181 199 203 198 206 208 241 262 280 272 250 255 258 257 278 297 306 325 324 314 322 338 334 335 337 330 334 335 326 320 316 317 315 313 309 308 309 309 310
195 192 184 199 183 199 204 196 198 206 217 231 244 252 248 249 258 270 279 258 258 351 311 338 337 343 329 331 328 326 334 333 333 330 330 321 315 316 316 312 314 316 315
191 198 182 194 202 195 195 200 195 205 212 222 218 279 270 276 263 246 214 267 329 335 325 324 316 319 326 321 318 321 326 331 339 340 336 331 323 319 318 317 318 317 316
195 206 193 191 207 212 195 202 207 203 192 220 221 244 265 269 259 260 251 342 344 25 313 316 323 320 327 319 308 320 330 333 335 336 336 334 332 329 326 325 322 320 322
207 206 198 201 208 204 190 204 215 196 208 221 225 235 245 261 262 253 299 310 319 320 301 313 319 318 316 331 318 322 328 331 331 331 332 335 332 328 328 324 320 322 325
210 208 192 198 213 200 205 208 215 187 214 223 222 220 215 237 251 275 340 357 345 332 321 314 318 318 324 327 319 317 321 325 326 323 322 320 322 326 329 330 329 328 326
211 208 198 191 206 195 211 213 217 202 215 228 223 231 243 255 295 325 331 332 330 325 331 334 321 322 313 316 318 319 316 324 327 325 322 320 316 317 319 320 323 324 327
214 207 207 193 201 203 207 213 212 206 217 231 234 240 248 267 270 312 313 328 327 348 327 323 322 310 307 309 315 317 317 328 335 348 339 331 329 325 320 320 319 319 321
213 210 211 197 203 205 203 213 220 222 222 226 225 241 251 230 282 258 298 316 327 312 311 327 304 279 294 306 308 321 321 329 349 355 353 354 351 342 334 327 318 315 315
213 211 207 199 201 208 203 217 221 223 222 219 234 237 235 206 219 248 271 298 299 327 344 343 298 279 288 297 315 323 330 346 359 5 11 17 13 4 353 343 335 326 318
206 197 200 201 203 206 210 215 222 223 216 228 228 218 195 205 229 244 275 292 317 331 343 9 331 304 305 314 320 320 343 1 0 6 7 8 359 358 356 351 347 346 340
204 198 200 200 202 206 209 211 217 213 214 221 215 196 232 228 225 260 274 293 309 335 327 323 342 308 307 312 319 336 357 1 7 356 356 353 349 348 350 348 351 351 347
201 198 200 199 202 201 202 199 204 211 218 206 200 207 213 225 241 268 285 294 305 276 276 292 303 304 311 329 339 351 4 356 358 351 351 348 348 349 349 357 1 359 355
199 202 201 196 200 196 193 198 206 214 205 195 206 207 202 207 225 265 299 293 293 260 270 280 293 314 340 343 340 353 1 347 359 1 347 347 354 14 14 9 7 360 351
210 201 196 197 196 191 191 196 207 206 198 199 202 198 198 209 229 262 279 288 310 311 328 358 354 21 333 328 327 343 345 2 6 353 352 347 14 9 1 2 0 355 354
212 210 190 190 187 190 190 192 202 193 200 201 196 197 204 209 225 280 274 288 261 289 28 7 30 355 340 319 325 347 347 10 16 22 330 353 9 7 352 358 1 359 3
276 289 188 181 187 187 187 190 198 195 197 189 186 192 194 209 257 253 275 310 300 89 22 348 17 338 298 310 327 338 23 44 30 2 17 31 8 349 349 353 356 360 359
232 230 225 196 177 183 182 191 194 191 191 185 185 196 198 212 256 240 248 275 290 238 207 175 179 277 303 336 345 12 23 30 61 353 20 27 0 4 356 351 353 351 352
223 220 212 178 178 183 188 188 188 186 188 183 185 180 185 209 230 184 229 271 281 306 317 319 265 346 348 358 9 30 48 44 28 4 4 18 355 356 357 348 343 345 357
199 215 195 182 178 181 183 184 186 180 178 172 168 169 175 148 142 114 81 64 45 34 33 18 31 40 37 27 25 48 52 25 4 335 345 13 344 346 30 351 335 343 353
184 166 170 174 177 178 181 176 174 169 160 155 148 160 200 141 160 128 95 45 26 14 34 59 57 58 46 30 23 17 41 45 30 358 340 352 338 355 58 328 329 338 348
170 172 177 175 171 168 171 171 172 164 167 168 167 182 174 155 149 150 145 131 120 7 65 73 63 50 35 25 24 24 48 40 31 353 341 355 333 354 83 308 336 9 354
170 179 178 169 170 162 157 164 174 174 174 166 163 175 140 122 137 155 159 135 172 104 88 72 45 27 25 15 8 3 9 9 11 14 337 348 351 357 350 326 16 7 1